GW3691 Weather Reports


Display with metric or nautical units.
time (UTC)temp
F
wind
direction
speed
MPH
gust
MPH
rain 1hr
in
rain 24hr
in
rain mn
in
humidity
%
barometer
mb
20260831141734 85 151 0.0 0.0 0.00 0.00 0.00 80 1022.1
20260831141229 85 147 0.0 0.0 0.00 0.00 0.00 81 1022.1
20260831140729 85 153 0.0 0.0 0.00 0.00 0.00 81 1022.2
20260831140223 85 164 0.0 1.0 0.00 0.00 0.00 80 1022.0
20260831135721 85 151 0.0 0.0 0.00 0.00 0.00 80 1021.6
20260831135217 85 124 0.0 1.0 0.00 0.00 0.00 82 1021.9
20260831134712 85 143 0.0 1.0 0.00 0.00 0.00 82 1021.8
20260831134209 84 138 0.0 0.0 0.00 0.00 0.00 84 1021.6
20260831133707 85 155 0.0 0.0 0.00 0.00 0.00 82 1021.6
20260831133202 86 161 0.0 0.0 0.00 0.00 0.00 81 1021.8
20260831132657 85 145 0.0 1.0 0.00 0.00 0.00 83 1021.6
20260831132157 85 147 0.0 0.0 0.00 0.00 0.00 82 1021.6
20260831131651 86 143 0.0 0.0 0.00 0.00 0.00 82 1021.7
20260831131148 85 148 0.0 0.0 0.00 0.00 0.00 83 1021.5
20260831130643 85 153 0.0 0.0 0.00 0.00 0.00 83 1021.6
20260831130139 85 148 0.0 0.0 0.00 0.00 0.00 82 1021.6
20260831125637 85 130 1.0 2.0 0.00 0.00 0.00 84 1021.7
20260831125133 84 150 0.0 0.0 0.00 0.00 0.00 85 1021.4
20260831124628 83 146 0.0 0.0 0.00 0.00 0.00 88 1021.2
20260831124125 81 117 0.0 1.0 0.00 0.00 0.00 91 1021.2
20260831123624 80 143 0.0 0.0 0.00 0.00 0.00 93 1021.3
20260831123123 80 150 0.0 0.0 0.00 0.00 0.00 95 1021.2
20260831122622 80 147 0.0 0.0 0.00 0.00 0.00 95 1021.4
20260831122119 79 141 0.0 0.0 0.00 0.00 0.00 96 1021.2
20260831121618 78 172 0.0 0.0 0.00 0.00 0.00 96 1021.3
20260831121115 78 163 0.0 0.0 0.00 0.00 0.00 96 1021.1
20260831120614 77 163 0.0 0.0 0.00 0.00 0.00 96 1021.2
20260831120109 76 164 0.0 0.0 0.00 0.00 0.00 96 1021.0
20260831115605 75 165 0.0 0.0 0.00 0.00 0.00 96 1021.1
20260831115101 75 165 0.0 0.0 0.00 0.00 0.00 96 1020.9
20260831114559 75 164 0.0 0.0 0.00 0.00 0.00 96 1021.1
20260831114054 75 164 0.0 0.0 0.00 0.00 0.00 96 1021.0
20260831113553 75 164 0.0 0.0 0.00 0.00 0.00 96 1020.9
20260831113050 75 164 0.0 0.0 0.00 0.00 0.00 96 1020.7
20260831112548 75 164 0.0 0.0 0.00 0.00 0.00 96 1020.6
20260831112044 75 164 0.0 0.0 0.00 0.00 0.00 96 1020.7
20260831111540 75 164 0.0 0.0 0.00 0.00 0.00 96 1020.8
20260831111036 75 164 0.0 0.0 0.00 0.00 0.00 96 1020.5
20260831110531 75 164 0.0 0.0 0.00 0.00 0.00 96 1020.5
20260831110026 75 164 0.0 0.0 0.00 0.00 0.00 96 1020.5
20260831105520 75 164 0.0 0.0 0.00 0.00 0.00 96 1020.5
20260831105015 75 164 0.0 0.0 0.00 0.00 0.00 96 1020.3
20260831104511 75 164 0.0 0.0 0.00 0.00 0.00 96 1020.0
20260831104007 75 164 0.0 0.0 0.00 0.00 0.00 96 1020.3
20260831103506 75 164 0.0 0.0 0.00 0.00 0.00 96 1020.3
20260831103002 75 165 0.0 0.0 0.00 0.00 0.00 96 1020.2
20260831102456 75 164 0.0 0.0 0.00 0.00 0.00 96 1019.9
20260831101951 75 164 0.0 0.0 0.00 0.00 0.00 96 1020.1
20260831101446 75 164 0.0 0.0 0.00 0.00 0.00 96 1020.1
20260831100943 75 164 0.0 0.0 0.00 0.00 0.00 96 1020.1
20260831100438 75 164 0.0 0.0 0.00 0.00 0.00 96 1020.2
20260831095933 75 164 0.0 0.0 0.00 0.00 0.00 96 1020.2
20260831095432 75 164 0.0 0.0 0.00 0.00 0.00 96 1020.2
20260831094927 75 164 0.0 0.0 0.00 0.00 0.00 96 1020.3
20260831094424 75 164 0.0 0.0 0.00 0.00 0.00 96 1020.5
20260831093919 75 164 0.0 0.0 0.00 0.00 0.00 96 1020.3
20260831093414 75 164 0.0 0.0 0.00 0.00 0.00 96 1020.3
20260831092911 75 164 0.0 0.0 0.00 0.00 0.00 96 1020.5
20260831092406 75 164 0.0 0.0 0.00 0.00 0.00 96 1020.3
20260831091901 75 164 0.0 0.0 0.00 0.00 0.00 96 1020.2
20260831091356 75 164 0.0 0.0 0.00 0.00 0.00 96 1020.2
20260831090852 75 164 0.0 0.0 0.00 0.00 0.00 96 1020.2
20260831090348 75 164 0.0 0.0 0.00 0.00 0.00 96 1019.9
20260831085845 75 164 0.0 0.0 0.00 0.00 0.00 96 1020.1
20260831085344 75 164 0.0 0.0 0.00 0.00 0.00 96 1020.0
20260831084838 75 164 0.0 0.0 0.00 0.00 0.00 96 1020.2
20260831084335 75 164 0.0 0.0 0.00 0.00 0.00 96 1020.1
20260831083831 75 164 0.0 0.0 0.00 0.00 0.00 96 1019.9
20260831083326 75 164 0.0 0.0 0.00 0.00 0.00 96 1020.0
20260831082825 75 164 0.0 0.0 0.00 0.00 0.00 96 1020.2
20260831082320 75 164 0.0 0.0 0.00 0.00 0.00 96 1020.0
20260831081816 75 164 0.0 0.0 0.00 0.00 0.00 96 1020.1
20260831081312 75 164 0.0 0.0 0.00 0.00 0.00 96 1020.1
20260831080807 75 164 0.0 0.0 0.00 0.00 0.00 96 1020.2
20260831080302 75 164 0.0 0.0 0.00 0.00 0.00 96 1020.2
20260831075757 75 164 0.0 0.0 0.00 0.00 0.00 96 1020.3
20260831075253 75 164 0.0 0.0 0.00 0.00 0.00 96 1020.4
20260831074752 75 164 0.0 0.0 0.00 0.00 0.00 96 1020.3
20260831074246 75 164 0.0 0.0 0.00 0.00 0.00 96 1020.2
20260831073742 75 165 0.0 0.0 0.00 0.00 0.00 96 1020.1
20260831073235 75 165 0.0 0.0 0.00 0.00 0.00 96 1020.4
20260831072730 75 164 0.0 0.0 0.00 0.00 0.00 96 1020.4
20260831072227 75 165 0.0 0.0 0.00 0.00 0.00 96 1020.5
20260831071726 75 165 0.0 0.0 0.00 0.00 0.00 96 1020.5
20260831071221 75 165 0.0 0.0 0.00 0.00 0.00 96 1020.3
20260831070720 76 165 0.0 0.0 0.00 0.00 0.00 96 1020.5
20260831070215 76 165 0.0 0.0 0.00 0.00 0.00 96 1020.5
20260831065714 75 165 0.0 0.0 0.00 0.00 0.00 96 1020.6
20260831065212 76 165 0.0 0.0 0.00 0.00 0.00 96 1020.5
20260831064707 76 165 0.0 0.0 0.00 0.00 0.00 96 1020.6
20260831064202 76 165 0.0 0.0 0.00 0.00 0.00 96 1020.5
20260831063658 76 165 0.0 0.0 0.00 0.00 0.00 96 1020.9
20260831063148 76 165 0.0 0.0 0.00 0.00 0.00 96 1020.7
20260831062642 76 165 0.0 0.0 0.00 0.00 0.00 96 1020.8
20260831062142 76 165 0.0 0.0 0.00 0.00 0.00 96 1020.7
20260831061640 76 165 0.0 0.0 0.00 0.00 0.00 96 1020.7
20260831061136 76 165 0.0 0.0 0.00 0.00 0.00 96 1020.6
20260831060632 76 165 0.0 0.0 0.00 0.00 0.00 96 1020.6
20260831060126 76 164 0.0 0.0 0.00 0.00 0.00 96 1020.9
20260831055626 76 165 0.0 0.0 0.00 0.00 0.00 96 1020.8
20260831055121 76 165 0.0 0.0 0.00 0.00 0.00 96 1020.9
20260831054620 76 165 0.0 0.0 0.00 0.00 0.00 96 1020.7
20260831054115 76 165 0.0 0.0 0.00 0.00 0.00 96 1021.2
20260831053614 77 165 0.0 0.0 0.00 0.00 0.00 96 1021.1
20260831053108 77 165 0.0 0.0 0.00 0.00 0.00 96 1020.8
20260831052606 77 165 0.0 0.0 0.00 0.00 0.00 96 1021.2
20260831052101 77 165 0.0 0.0 0.00 0.00 0.00 96 1020.9
20260831051559 77 165 0.0 0.0 0.00 0.00 0.00 96 1021.0
20260831051058 77 164 0.0 0.0 0.00 0.00 0.00 96 1020.9
20260831050558 77 164 0.0 0.0 0.00 0.00 0.00 96 1021.1
20260831050056 77 164 0.0 0.0 0.00 0.00 0.00 96 1021.1
20260831045556 77 164 0.0 0.0 0.00 0.00 0.00 96 1021.0
20260831045052 77 164 0.0 0.0 0.00 0.00 0.00 95 1020.9
20260831044548 77 164 0.0 0.0 0.00 0.00 0.00 95 1021.0
20260831044043 77 164 0.0 0.0 0.00 0.00 0.00 95 1020.9
20260831043537 77 164 0.0 0.0 0.00 0.00 0.00 95 1021.0
20260831043033 77 164 0.0 0.0 0.00 0.00 0.00 95 1021.0
20260831042532 77 165 0.0 0.0 0.00 0.00 0.00 95 1021.0
20260831042027 77 164 0.0 0.0 0.00 0.00 0.00 95 1021.1
20260831041522 77 164 0.0 0.0 0.00 0.00 0.00 95 1021.0
20260831041021 77 164 0.0 0.0 0.00 0.00 0.00 95 1020.8
20260831040516 77 164 0.0 0.0 0.00 0.00 0.00 95 1020.8
20260831040015 77 164 0.0 0.0 0.00 0.00 0.00 95 1021.0
20260831035508 77 164 0.0 0.0 0.00 0.00 0.00 95 1020.7
20260831035003 78 164 0.0 0.0 0.00 0.00 0.00 94 1021.3
20260831034456 78 164 0.0 0.0 0.00 0.00 0.00 94 1021.0
20260831033952 78 164 0.0 0.0 0.00 0.00 0.00 94 1021.2
20260831033447 78 165 0.0 0.0 0.00 0.00 0.00 94 1021.2
20260831032943 78 165 0.0 0.0 0.00 0.00 0.00 94 1021.4
20260831032437 78 165 0.0 0.0 0.00 0.00 0.00 94 1021.2
20260831031932 78 165 0.0 0.0 0.00 0.00 0.00 94 1021.2
20260831031426 78 165 0.0 0.0 0.00 0.00 0.00 94 1021.3
20260831030920 78 165 0.0 0.0 0.00 0.00 0.00 94 1021.3
20260831030419 78 165 0.0 0.0 0.00 0.00 0.00 94 1021.5
20260831025918 78 165 0.0 0.0 0.00 0.00 0.00 94 1021.4
20260831025417 78 164 0.0 0.0 0.00 0.00 0.00 94 1021.5
20260831024914 78 164 0.0 0.0 0.00 0.00 0.00 94 1021.4
20260831024413 78 164 0.0 0.0 0.00 0.00 0.00 93 1021.4
20260831023908 78 164 0.0 0.0 0.00 0.00 0.00 94 1021.7
20260831023406 78 164 0.0 0.0 0.00 0.00 0.00 93 1021.5
20260831022902 79 164 0.0 0.0 0.00 0.00 0.00 93 1021.6
20260831022400 79 165 0.0 0.0 0.00 0.00 0.00 93 1021.4
20260831021855 79 164 0.0 0.0 0.00 0.00 0.00 93 1021.3
20260831021354 79 164 0.0 0.0 0.00 0.00 0.00 93 1021.4
20260831020850 79 164 0.0 0.0 0.00 0.00 0.00 92 1021.2
20260831020344 79 164 0.0 0.0 0.00 0.00 0.00 92 1021.5
20260831015840 79 164 0.0 0.0 0.00 0.00 0.00 92 1021.5
20260831015335 79 164 0.0 0.0 0.00 0.00 0.00 92 1021.6
20260831014830 80 164 0.0 0.0 0.00 0.00 0.00 91 1021.6
20260831014324 80 164 0.0 0.0 0.00 0.00 0.00 91 1021.6
20260831013820 80 164 0.0 0.0 0.00 0.00 0.00 91 1021.6
20260831013320 80 164 0.0 0.0 0.00 0.00 0.00 90 1021.8
20260831012815 80 154 0.0 0.0 0.00 0.00 0.00 90 1021.7
20260831012310 80 153 0.0 0.0 0.00 0.00 0.00 90 1021.5
20260831011809 80 155 0.0 0.0 0.00 0.00 0.00 90 1021.6
20260831011304 81 147 0.0 0.0 0.00 0.00 0.00 90 1021.4
20260831010800 81 148 0.0 0.0 0.00 0.00 0.00 89 1021.3
20260831010255 81 152 0.0 0.0 0.00 0.00 0.00 89 1021.4
20260831005751 81 152 0.0 0.0 0.00 0.00 0.00 89 1021.5
20260831005246 81 152 0.0 0.0 0.00 0.00 0.00 89 1021.5
20260831004741 81 153 0.0 0.0 0.00 0.00 0.00 89 1021.1
20260831004237 81 156 0.0 0.0 0.00 0.00 0.00 88 1021.4
20260831003732 81 152 0.0 0.0 0.00 0.00 0.00 88 1020.9
20260831003229 81 144 0.0 0.0 0.00 0.00 0.00 88 1021.1
20260831002728 81 147 0.0 0.0 0.00 0.00 0.00 87 1021.0
20260831002227 81 154 0.0 0.0 0.00 0.00 0.00 87 1021.1
20260831001723 81 150 0.0 0.0 0.00 0.00 0.00 86 1021.2
20260831001218 81 152 0.0 0.0 0.00 0.00 0.00 86 1021.1
20260831000715 81 123 0.0 0.0 0.00 0.00 0.00 86 1021.1
20260831000211 81 150 0.0 0.0 0.00 0.00 0.00 86 1021.2
20260830235709 82 145 0.0 0.0 0.00 0.00 0.00 85 1021.2
20260830235204 82 150 0.0 0.0 0.00 0.00 0.00 85 1020.8
20260830234659 82 148 0.0 0.0 0.00 0.00 0.00 84 1020.8
20260830234154 82 151 0.0 0.0 0.00 0.00 0.00 84 1021.0
20260830233650 82 157 0.0 0.0 0.00 0.00 0.00 84 1020.9
20260830233145 82 143 0.0 0.0 0.00 0.00 0.00 83 1020.9
20260830232641 82 150 0.0 0.0 0.00 0.00 0.00 84 1020.8
20260830232137 82 146 0.0 0.0 0.00 0.00 0.00 84 1020.6
20260830231633 82 120 0.0 0.0 0.00 0.00 0.00 83 1020.7
20260830231132 82 159 0.0 1.0 0.00 0.00 0.00 83 1020.7
20260830230627 83 145 1.0 2.0 0.00 0.00 0.00 83 1021.0
20260830230127 83 124 1.0 1.0 0.00 0.00 0.00 83 1020.9
20260830225617 83 149 0.0 0.0 0.00 0.00 0.00 83 1020.7
20260830225112 83 153 1.0 1.0 0.00 0.00 0.00 83 1020.9
20260830224610 83 134 1.0 1.0 0.00 0.00 0.00 82 1020.7
20260830224107 83 149 0.0 0.0 0.00 0.00 0.00 82 1020.7
20260830223603 84 137 0.0 1.0 0.00 0.00 0.00 81 1020.6
20260830223103 84 120 0.0 0.0 0.00 0.00 0.00 81 1020.6
20260830222557 85 174 1.0 1.0 0.00 0.00 0.00 80 1020.3
20260830222054 85 131 3.0 5.0 0.00 0.00 0.00 79 1020.5
20260830221549 85 152 0.0 0.0 0.00 0.00 0.00 79 1020.5
20260830221040 85 55 2.0 2.0 0.00 0.00 0.00 80 1020.6
20260830220539 85 125 1.0 1.0 0.00 0.00 0.00 80 1020.6
20260830220037 85 141 0.0 0.0 0.00 0.00 0.00 80 1020.5
20260830215532 86 80 1.0 2.0 0.00 0.00 0.00 79 1020.7
20260830215026 86 142 0.0 0.0 0.00 0.00 0.00 80 1020.5
20260830214522 86 158 2.0 2.0 0.00 0.00 0.00 79 1020.5
20260830214021 88 116 3.0 3.0 0.00 0.00 0.00 77 1020.4
20260830213516 89 103 2.0 3.0 0.00 0.00 0.00 74 1020.5
20260830213012 89 25 2.0 3.0 0.00 0.00 0.00 74 1020.6
20260830212507 89 143 1.0 1.0 0.00 0.00 0.00 74 1020.4
20260830212002 89 129 1.0 1.0 0.00 0.00 0.00 73 1020.4
20260830211456 89 149 1.0 1.0 0.00 0.00 0.00 73 1020.6
20260830210951 90 80 3.0 5.0 0.00 0.00 0.00 72 1020.6
20260830210445 90 180 2.0 3.0 0.00 0.00 0.00 71 1020.4
20260830205943 90 146 1.0 1.0 0.00 0.00 0.00 73 1020.5
20260830205442 89 143 2.0 2.0 0.00 0.00 0.00 73 1020.8
20260830204938 91 120 4.0 5.0 0.00 0.00 0.00 72 1020.9
20260830204437 91 53 1.0 1.0 0.00 0.00 0.00 72 1020.5
20260830203931 91 78 2.0 2.0 0.00 0.00 0.00 71 1020.6
20260830203428 91 126 1.0 1.0 0.00 0.00 0.00 72 1020.6
20260830202921 90 100 5.0 8.0 0.00 0.00 0.00 71 1020.6
20260830202417 91 139 1.0 2.0 0.00 0.00 0.00 71 1020.7
20260830201912 91 173 1.0 1.0 0.00 0.00 0.00 72 1020.8
20260830201406 91 116 1.0 2.0 0.00 0.00 0.00 71 1020.9
20260830200902 91 114 1.0 1.0 0.00 0.00 0.00 72 1020.9
20260830200402 91 106 1.0 2.0 0.00 0.00 0.00 70 1021.2
20260830195856 91 150 1.0 1.0 0.00 0.00 0.00 72 1021.2
20260830195355 91 167 1.0 2.0 0.00 0.00 0.00 71 1021.2
20260830194854 91 132 2.0 3.0 0.00 0.00 0.00 71 1021.2
20260830194348 90 77 2.0 2.0 0.00 0.00 0.00 73 1021.3
20260830193843 91 128 2.0 3.0 0.00 0.00 0.00 71 1021.2
20260830193337 91 183 2.0 2.0 0.00 0.00 0.00 72 1021.3
20260830192833 92 33 2.0 3.0 0.00 0.00 0.00 71 1021.3
20260830192333 91 121 1.0 2.0 0.00 0.00 0.00 71 1021.4
20260830191829 89 143 2.0 2.0 0.00 0.00 0.00 72 1021.2
20260830191328 92 87 3.0 3.0 0.00 0.00 0.00 69 1021.4
20260830190825 93 122 1.0 1.0 0.00 0.00 0.00 69 1021.3
20260830190324 91 126 2.0 2.0 0.00 0.00 0.00 67 1021.4
20260830185822 92 60 2.0 3.0 0.00 0.00 0.00 70 1021.2
20260830185318 91 108 0.0 1.0 0.00 0.00 0.00 71 1021.6
20260830184813 91 119 2.0 2.0 0.00 0.00 0.00 68 1021.6
20260830184312 91 132 3.0 3.0 0.00 0.00 0.00 69 1021.6
20260830183807 91 105 1.0 1.0 0.00 0.00 0.00 71 1021.6
20260830183301 89 153 1.0 1.0 0.00 0.00 0.00 71 1021.4
20260830182757 91 127 3.0 3.0 0.00 0.00 0.00 71 1021.6
20260830182252 90 155 1.0 2.0 0.00 0.00 0.00 71 1021.6
20260830181748 90 44 2.0 3.0 0.00 0.00 0.00 72 1021.5
20260830181243 91 125 1.0 1.0 0.00 0.00 0.00 71 1021.6
20260830180742 90 154 3.0 5.0 0.00 0.00 0.00 71 1021.7
20260830180237 89 154 0.0 0.0 0.00 0.00 0.00 75 1021.8
20260830175732 89 155 1.0 1.0 0.00 0.00 0.00 72 1022.0
20260830175227 89 73 5.0 6.0 0.00 0.00 0.00 73 1022.0
20260830174721 90 127 3.0 3.0 0.00 0.00 0.00 71 1022.1
20260830174218 90 142 3.0 5.0 0.00 0.00 0.00 71 1022.2
20260830173717 91 133 1.0 1.0 0.00 0.00 0.00 70 1022.4
20260830173212 89 133 1.0 2.0 0.00 0.00 0.00 73 1022.2
20260830172709 91 108 3.0 5.0 0.00 0.00 0.00 70 1022.4
20260830172205 90 147 2.0 3.0 0.00 0.00 0.00 71 1022.4
20260830171700 89 126 1.0 2.0 0.00 0.00 0.00 70 1022.6
20260830171155 90 137 0.0 1.0 0.00 0.00 0.00 69 1022.5
20260830170649 89 117 3.0 5.0 0.00 0.00 0.00 71 1022.6
20260830170148 87 129 1.0 2.0 0.00 0.00 0.00 75 1022.6
20260830165643 89 130 1.0 3.0 0.00 0.00 0.00 73 1022.7
20260830165139 89 106 3.0 5.0 0.00 0.00 0.00 70 1022.6
20260830164636 89 135 0.0 1.0 0.00 0.00 0.00 71 1022.6
20260830164131 88 324 4.0 6.0 0.00 0.00 0.00 71 1022.8
20260830163628 89 130 0.0 1.0 0.00 0.00 0.00 72 1022.7
20260830163127 90 121 1.0 2.0 0.00 0.00 0.00 71 1022.6
20260830162622 91 116 1.0 2.0 0.00 0.00 0.00 69 1022.7
20260830162118 89 134 0.0 0.0 0.00 0.00 0.00 71 1022.6
20260830161618 89 129 3.0 3.0 0.00 0.00 0.00 70 1022.6
20260830161113 88 127 0.0 0.0 0.00 0.00 0.00 73 1022.8
20260830160609 88 151 0.0 0.0 0.00 0.00 0.00 72 1022.7
20260830160103 88 146 2.0 2.0 0.00 0.00 0.00 73 1022.7
20260830155600 90 141 0.0 0.0 0.00 0.00 0.00 71 1022.9
20260830155055 89 139 0.0 1.0 0.00 0.00 0.00 70 1022.8
20260830154550 87 116 0.0 0.0 0.00 0.00 0.00 74 1022.7
20260830154047 86 144 0.0 0.0 0.00 0.00 0.00 76 1022.7
20260830153543 86 141 0.0 1.0 0.00 0.00 0.00 77 1022.7
20260830153042 85 137 1.0 1.0 0.00 0.00 0.00 78 1023.0
20260830152537 86 144 0.0 1.0 0.00 0.00 0.00 77 1022.9
20260830152036 86 132 0.0 0.0 0.00 0.00 0.00 78 1023.2
20260830151530 86 135 1.0 2.0 0.00 0.00 0.00 77 1022.9
20260830151026 86 123 1.0 2.0 0.00 0.00 0.00 77 1023.2
20260830150525 86 135 1.0 1.0 0.00 0.00 0.00 77 1023.0
20260830150020 86 146 0.0 0.0 0.00 0.00 0.00 77 1023.1
20260830145519 87 157 0.0 0.0 0.00 0.00 0.00 75 1023.1
20260830145015 87 154 0.0 0.0 0.00 0.00 0.00 74 1022.9
20260830144510 86 135 1.0 1.0 0.00 0.00 0.00 76 1023.0
20260830144006 86 142 2.0 2.0 0.00 0.00 0.00 75 1023.0
20260830143501 87 145 0.0 0.0 0.00 0.00 0.00 76 1023.3
20260830142959 87 163 0.0 0.0 0.00 0.00 0.00 77 1023.1
20260830142455 87 137 1.0 1.0 0.00 0.00 0.00 75 1023.0
20260830141949 87 150 0.0 0.0 0.00 0.00 0.00 76 1023.0